User: anonymous   Login
Location: Chochol
(49.7771°N, 14.9780°E)
Time: 08:45:57
(UTC+00:00)
Language:

DUCHIFAT 1 - Orbit

View from above orbital plane
View from above orbital plane
View from above satellite
View from above satellite

Ground track
Ground track

The orbit data is extracted from the following two-line orbital elements,

1 40021U 14033M   21128.81425998  .00000275  00000-0  33528-4 0  9997
2 40021  97.9705  68.5921 0011477 299.2932  60.7139 14.91302083374374
Epoch (UTC): 08 May 2021 19:32:32
Eccentricity: 0.0011477
inclination: 97.9705°
perigee height: 586 km
apogee height: 602 km
right ascension of ascending node: 68.5921°
argument of perigee: 299.2932°
revolutions per day: 14.91302083
mean anomaly at epoch: 60.7139°
orbit number at epoch: 37437

The dashed part of the orbit path shows where the satellite is in the earth's shadow,  

DLR